Theta_e
303 303 303 303 302 302 303 303 303 304 303 303 302 302 302 302 302 302 302 303 303 303 304 304 304 304 304 305 305 306 307 309 310 310 310 316 320 323 326 325 328 328 329
303 302 302 302 303 303 303 302 303 302 302 302 302 302 302 302 303 303 303 304 304 305 305 306 305 305 305 305 306 306 307 308 309 311 312 314 319 322 322 322 322 324 324
302 302 302 303 303 304 303 302 302 303 303 303 303 303 303 303 303 304 305 306 306 307 308 307 306 305 305 306 307 307 308 310 311 313 314 316 320 321 320 319 317 316 315
302 302 303 303 304 305 305 304 303 303 303 303 304 304 304 304 304 305 306 306 306 306 307 309 309 308 307 307 307 308 310 311 313 315 315 317 320 319 318 316 314 313 312
303 303 304 305 305 306 305 303 303 302 303 302 304 304 304 304 305 306 306 306 306 306 307 307 308 309 310 309 309 309 311 312 314 315 315 320 319 316 316 315 313 313 312
304 305 305 305 305 305 304 305 301 304 303 303 304 303 303 304 306 306 307 306 307 306 306 307 307 307 310 312 313 312 312 313 313 313 315 320 320 319 317 314 312 311 311
305 305 304 305 304 303 303 302 301 302 304 305 304 303 302 303 306 306 306 306 307 307 306 307 307 307 307 308 310 310 311 311 311 313 316 314 315 316 316 313 312 312 311
305 304 305 304 303 302 303 302 299 299 301 305 304 303 302 302 303 305 307 307 307 306 306 307 308 309 309 308 308 308 309 309 310 311 311 311 312 312 313 313 312 311 311
303 303 304 304 303 302 303 298 299 299 301 301 304 301 301 301 302 303 304 306 307 306 306 306 305 305 307 310 309 308 308 309 309 309 310 310 310 310 311 311 312 312 311
303 303 304 305 303 303 299 298 298 299 299 302 303 302 300 300 301 302 304 305 306 307 306 306 306 305 306 307 307 308 310 309 310 310 309 309 310 310 311 311 311 311 312
303 304 305 304 304 301 298 298 299 298 299 300 300 300 299 299 300 301 303 304 305 305 305 305 305 305 306 306 307 307 308 309 308 308 308 309 308 308 308 310 310 310 309
305 303 303 301 304 300 299 298 299 298 299 300 300 300 299 299 300 301 302 304 305 304 304 304 305 305 305 305 305 305 306 307 307 307 307 307 307 307 307 308 308 307 307
303 302 302 302 301 303 300 299 298 299 299 299 299 298 298 299 299 300 301 302 303 303 303 303 303 303 303 303 303 302 303 304 304 305 305 305 306 305 305 307 308 307 305
302 302 302 302 302 301 300 299 298 298 298 298 298 297 297 298 299 300 300 301 301 302 301 301 300 300 300 300 301 301 301 301 302 303 303 303 303 304 304 304 304 307 305
303 301 301 303 301 300 299 298 298 298 298 298 298 298 297 298 298 300 299 299 299 299 299 298 298 298 298 298 298 299 299 299 300 301 301 301 302 302 303 302 302 304 304
300 300 301 302 299 299 299 300 298 297 298 298 298 298 299 299 299 300 300 298 298 298 297 297 296 296 296 296 296 297 298 297 298 299 299 300 300 301 302 302 302 302 303
300 300 300 302 300 298 298 298 299 299 298 298 299 299 299 299 299 298 298 297 296 296 296 295 295 295 295 295 295 295 295 296 296 297 297 298 298 299 300 301 300 301 301
301 300 299 301 298 298 298 298 299 300 300 300 299 300 299 299 299 298 297 296 296 295 295 295 295 294 294 294 294 294 294 294 295 295 295 296 297 298 299 300 300 300 300
302 299 299 300 297 298 298 298 298 298 300 300 300 299 300 299 299 298 296 296 295 295 295 295 295 295 294 294 293 293 293 293 293 293 293 294 295 296 297 299 300 299 299
300 299 299 300 298 297 297 298 299 299 299 299 299 299 299 299 298 297 297 296 296 296 296 296 295 295 293 292 292 291 292 292 292 292 292 293 295 296 296 298 299 299 300
302 300 299 298 298 298 298 298 300 300 300 300 299 299 299 298 297 297 296 296 296 296 296 296 294 292 292 290 291 291 290 291 291 291 292 293 294 295 296 298 299 300 300
300 299 299 298 298 297 299 300 300 299 300 300 299 299 298 298 297 297 296 297 296 296 296 294 292 292 292 290 290 290 290 290 290 290 291 292 294 295 296 298 299 300 300
300 299 298 298 297 298 300 300 299 300 300 299 299 298 298 297 296 296 296 296 296 295 293 293 291 291 290 290 290 289 289 289 290 291 291 293 294 295 296 297 299 300 301
299 298 297 296 297 300 299 299 300 300 300 299 298 298 297 296 296 296 296 295 293 293 291 291 290 290 289 290 290 290 291 291 291 291 292 293 294 296 297 298 300 301 301
297 296 295 296 298 299 299 300 300 300 299 298 298 298 296 296 296 296 295 293 292 291 291 290 289 289 290 291 291 292 292 292 292 293 294 294 296 297 299 300 301 302 302
297 295 295 297 300 300 300 299 299 298 298 298 297 297 296 296 296 294 292 291 291 290 290 290 290 291 292 293 293 293 294 294 295 295 296 296 297 299 300 301 302 302 302
Wind_Speed
20 19 18 19 19 20 21 23 26 26 26 26 27 28 28 29 30 29 28 29 27 28 29 28 28 26 24 21 20 20 20 18 10 16 17 16 12 13 8 4 7 8 8
17 17 16 17 20 22 25 24 22 25 26 27 27 28 29 29 30 29 29 29 28 28 25 20 21 21 21 20 20 19 19 20 20 11 13 12 11 3 3 6 10 14 14
15 16 16 18 19 20 20 23 23 26 30 30 29 29 30 30 29 28 28 27 23 22 20 15 15 16 17 17 17 18 19 20 19 14 13 7 3 2 8 7 10 12 14
15 13 15 18 19 19 19 18 22 24 28 31 31 30 31 29 28 28 27 25 25 24 20 19 16 13 14 15 16 17 17 17 16 13 14 14 7 5 11 14 8 10 11
12 14 17 17 20 20 16 15 19 20 25 29 33 33 32 30 31 29 28 27 27 26 25 21 15 14 12 15 13 14 14 16 13 12 11 5 7 8 8 9 8 11 9
15 16 14 16 20 18 18 18 22 21 19 24 27 31 31 33 31 28 29 28 29 29 27 28 26 20 17 8 8 15 17 13 11 9 10 5 5 9 12 16 16 7 2
14 16 14 17 18 20 20 23 23 25 25 24 21 24 29 33 31 30 28 29 29 31 30 26 28 30 25 22 16 13 9 6 6 8 7 5 2 3 9 13 10 8 5
18 16 17 15 16 20 22 20 24 26 27 22 14 18 25 29 32 31 28 29 28 29 32 30 30 27 26 25 24 24 24 24 22 19 16 13 10 7 4 9 11 7 7
16 16 18 13 17 18 20 23 24 26 27 27 8 19 24 25 27 32 30 26 23 24 26 27 30 30 26 19 19 18 19 17 21 25 23 22 18 15 10 9 9 8 3
15 16 18 15 14 16 17 25 25 24 25 27 8 23 25 28 24 27 32 24 26 21 24 28 27 28 27 28 29 15 12 10 13 14 16 18 17 18 19 9 4 5 3
19 20 17 14 13 8 16 21 23 23 22 24 25 21 24 26 29 24 28 29 18 20 22 24 25 25 27 25 25 28 24 17 15 16 15 16 17 17 17 15 12 8 9
19 20 19 14 8 8 12 15 19 22 25 22 19 24 24 26 28 29 27 28 20 17 21 20 22 23 25 28 25 23 23 24 22 22 22 20 19 16 15 12 12 12 12
18 19 20 11 12 6 8 10 17 17 20 20 20 22 22 25 27 29 26 23 21 19 19 22 22 23 24 26 27 27 26 25 21 19 18 20 17 14 14 10 6 7 11
16 17 19 18 11 8 6 5 10 14 15 20 19 22 22 23 25 25 27 23 21 19 19 19 21 21 22 23 24 23 23 22 20 17 17 17 18 16 16 13 12 4 10
15 18 22 18 17 10 10 4 3 7 11 15 18 14 21 24 24 21 23 24 23 20 20 24 24 23 22 22 21 21 20 21 20 19 18 17 17 17 14 13 11 10 7
15 16 21 19 16 13 16 12 4 1 5 9 13 18 21 21 22 20 15 24 20 21 22 21 19 19 20 20 20 19 19 19 19 17 17 16 15 15 13 11 10 9 8
15 15 21 20 13 14 16 19 20 1 2 1 8 13 18 18 20 22 19 17 25 26 21 19 19 19 19 19 19 18 18 18 18 16 16 15 15 14 16 10 8 8 7
10 15 18 17 18 11 10 14 17 15 10 8 8 14 16 17 13 22 22 22 23 21 17 15 14 16 17 18 18 17 18 18 17 16 16 15 15 14 14 13 7 6 5
5 13 13 16 16 16 14 10 9 13 8 12 13 13 14 15 16 18 22 17 14 16 18 17 18 16 18 16 17 16 16 16 15 16 14 15 14 14 12 13 4 6 4
7 15 14 17 10 16 12 17 20 9 11 14 14 13 14 18 18 17 18 19 19 18 18 19 18 15 17 17 17 16 14 13 14 13 13 14 13 11 10 10 8 4 5
5 9 12 16 15 14 13 13 17 17 14 19 17 17 18 18 16 19 19 20 21 22 18 14 15 17 14 19 16 16 13 12 14 12 11 12 12 11 9 9 6 5 5
12 14 10 17 16 17 18 15 16 17 21 12 15 19 21 19 19 20 20 21 24 21 14 15 17 17 15 17 15 15 13 12 13 12 10 11 11 10 8 8 6 5 6
13 14 15 15 18 17 16 19 16 20 20 18 19 19 19 19 21 22 24 25 20 17 19 16 19 18 17 17 11 13 12 11 12 8 8 9 9 8 8 7 5 5 6
14 15 18 18 17 18 19 19 22 20 19 20 18 19 19 20 22 25 23 18 25 16 22 18 19 17 17 15 12 12 10 9 7 5 5 7 7 6 7 5 5 7 6
16 15 14 17 18 15 16 19 20 20 19 19 18 18 22 20 23 21 23 20 22 20 21 20 21 20 17 14 13 11 9 7 5 4 4 4 5 5 6 5 6 7 6
14 15 15 17 18 15 18 19 20 19 18 17 20 20 20 22 19 25 23 21 23 22 21 22 22 20 18 16 14 12 11 9 7 6 6 6 6 6 6 7 7 7 7
Wind_Direction
22 16 14 5 3 2 360 359 359 349 342 340 337 330 330 329 327 322 314 309 300 293 286 272 267 270 270 266 262 262 263 260 270 288 286 310 334 350 17 6 47 83 84
24 19 13 11 14 14 14 6 8 2 358 353 349 345 340 337 336 330 321 318 311 303 302 294 270 272 271 271 263 261 258 262 266 274 285 292 309 6 45 81 94 101 112
25 20 10 10 2 12 10 12 10 10 10 4 359 353 349 347 343 340 341 334 332 334 321 315 294 278 273 268 265 265 265 266 259 259 276 276 214 63 111 100 120 113 105
28 14 355 355 352 348 347 356 11 11 13 13 11 6 2 358 356 3 359 356 359 357 356 353 316 295 275 269 267 268 277 286 286 272 278 285 252 180 165 143 126 130 126
10 349 356 356 353 346 353 1 1 3 11 14 16 17 12 10 16 18 18 11 12 12 17 19 5 359 297 270 268 277 287 300 319 319 311 266 160 154 179 162 149 152 146
4 353 350 354 357 6 1 360 352 342 342 6 13 22 19 17 20 27 32 22 25 22 17 20 25 22 27 323 275 266 272 294 311 303 298 327 157 173 172 170 156 152 187
353 356 350 2 9 4 1 357 352 352 343 332 357 20 26 24 21 24 30 34 31 27 22 29 32 40 48 54 60 61 47 12 359 313 300 18 48 175 189 170 169 167 183
8 8 359 4 2 0 357 354 355 352 351 347 358 16 27 26 22 17 21 31 36 41 38 35 38 35 39 48 56 60 61 57 55 59 63 62 72 80 141 180 168 140 120
5 360 360 355 4 2 5 3 3 0 4 354 18 35 24 18 18 22 19 20 19 29 30 33 37 40 39 39 50 55 58 57 65 62 63 63 62 70 76 118 122 133 93
8 354 353 337 355 5 12 13 9 11 10 26 67 39 25 14 13 20 21 18 15 20 33 31 32 35 39 39 42 26 23 33 44 53 61 58 59 60 59 68 102 68 76
352 346 348 356 338 18 15 19 15 14 17 26 26 25 23 16 17 20 29 23 12 19 25 32 27 30 39 40 39 39 38 52 59 55 51 58 60 56 55 59 69 88 94
0 1 3 15 35 25 15 21 29 24 27 25 19 22 18 17 22 25 30 35 36 46 34 32 31 33 34 35 34 38 47 45 45 44 43 41 43 50 45 58 62 71 69
5 2 6 2 15 2 17 18 33 38 31 26 20 18 16 21 26 26 27 28 32 26 29 33 36 32 33 31 29 31 34 29 27 27 23 29 40 40 50 57 74 61 66
8 4 2 356 2 359 355 358 36 42 38 33 27 24 24 21 21 23 23 23 30 29 27 28 32 33 32 30 26 26 27 30 28 24 23 29 31 34 32 32 36 139 79
8 3 4 359 11 6 351 343 2 48 43 40 35 24 24 23 21 23 28 28 30 32 38 33 25 21 17 16 15 18 19 19 18 16 18 20 27 27 30 23 33 57 81
10 2 4 2 10 11 7 347 294 105 42 52 49 42 34 23 24 27 28 22 31 34 37 29 21 17 13 10 7 6 10 11 8 11 15 14 14 15 19 30 45 55 66
12 14 9 9 6 18 19 17 11 331 226 34 42 33 31 17 20 22 28 32 34 40 34 24 19 13 6 3 1 359 356 1 10 11 10 9 9 13 10 23 32 43 51
13 16 13 12 11 5 27 23 22 38 87 69 41 35 31 26 28 16 22 34 27 25 20 9 1 359 356 358 354 353 351 358 4 6 8 8 7 9 7 7 30 30 24
9 14 9 6 17 18 19 7 23 31 72 67 54 34 28 30 26 23 26 31 16 7 2 358 351 346 352 346 351 352 353 355 360 360 1 4 4 5 4 8 10 23 39
60 24 17 9 17 16 33 22 14 22 47 73 54 36 37 30 22 13 9 5 2 354 351 345 345 351 349 352 353 353 353 355 357 352 353 356 1 0 356 357 5 27 26
19 5 21 25 22 15 23 34 23 24 69 80 62 43 38 32 19 6 0 358 354 347 346 347 356 352 351 352 348 347 348 350 352 349 356 359 1 360 356 358 4 17 25
41 27 40 31 24 26 20 28 36 27 62 81 41 33 26 22 12 0 355 348 349 348 341 357 5 351 343 349 346 343 344 344 347 350 351 354 358 358 1 11 14 23 29
45 39 36 33 34 25 32 32 34 59 56 52 37 27 18 18 5 359 353 347 353 2 354 2 356 350 346 347 345 338 338 336 336 337 339 347 353 355 1 6 21 39 34
46 47 43 36 30 37 40 32 37 52 55 42 35 26 15 9 2 354 353 6 359 360 2 358 357 354 350 351 351 350 351 345 344 348 354 353 356 10 11 27 42 27 63
51 46 37 37 27 49 43 41 51 46 44 39 26 18 13 6 357 4 1 9 5 6 2 8 7 4 2 6 11 19 16 19 32 42 44 35 27 32 49 53 54 53 75
58 53 40 34 33 48 54 55 48 39 35 28 22 13 9 6 16 4 9 15 9 12 11 14 17 19 21 25 27 33 42 50 56 57 65 56 58 67 66 76 47 61 79